Houston Intercontinental

Airport
ICAO code: 
KIAH
Summary
ICAO Region: 
NAM
Territory: 
Location: 
Houston, Texas,
Elevation: 
97 ft
Coordinates: 
Aerial View: 
29° 59' 3.839" N, 95° 20' 29.041" W
Airport LOS: 
Parallel Runway Operation
Airport WX: 
Tropical Revolving Storm
Metar
Observation
KIAH 221053Z 02006KT 10SM CLR 00/M06 A3043 RMK AO2 SLP304 T00001056
Station
Houston, Houston Intercontinental Airport
Date/Time
2022-01-22 10:53:00
Wind direction
20°
Wind speed
06 kts
Lowest cloud amount
n/a
Temperature
0°C
Dew point
-5.6°C
Humidity
65%
Weather condition
n/a

Description

International airport serving Houston Texas.

Climatology

Humid “subtropical” climate (Köppen climate classification Cfa) - characterized by hot, humid summers and cool winters. Significant amounts of precipitation occur in all seasons in most areas. Winter rainfall (and sometimes snowfall) is associated with large storms that the westerlies steer from west to east. Most summer rainfall occurs during thunderstorms and occasional tropical storms (hurricanes).

Runways

Designator Length Width Surface Rops
08L/26R 2743 46 CON Yes/Yes
08R/26L 2866 46 CON Yes/Yes
9/27 3048 46 ASP Yes/Yes
15R/33L 3048 46 CON Yes/Yes
15L/33R 3658 46 CON Yes/Yes
Airport map: 
Aerial View: 

Accidents and Serious Incidents at or in the vicinity of KIAH

SKYbrary Partners:

Safety knowledge contributed by: